Tracking 30101 objects as of 14-Dec-2024
HD Live streaming from Space Station
objects crossing your sky now

STARLINK-31502

Track STARLINK-31502 now!
10-day predictions
STARLINK-31502 is classified as:


NORAD ID: 59301
Int'l Code: 2024-056F
Perigee: 450.1 km
Apogee: 452.4 km
Inclination: 43.0 °
Period: 93.5 minutes
Semi major axis: 6822 km
RCS: Unknown
Launch date: March 24, 2024
Source: United States (US)
Launch site: AIR FORCE EASTERN TEST RANGE (AFETR)
Your satellite tracking list
Your tracking list is empty




NASA's NSSDC Master Catalog

Two Line Element Set (TLE):
1 59301U 24056F   24349.16955698  .00000977  00000-0  30660-4 0  9998
2 59301  43.0021 269.6784 0001699 276.6675  83.3988 15.40681166 41828
Source of the keplerian elements: AFSPC